www.pogodaiklimat.ru

Погода и климат >> Архив погоды >> Кот-д'Ивуар >> Yamoussoukro


ПОГОДА в Yamoussoukro

  • Прогноз погоды в Yamoussoukro
  • Монитор погоды в Yamoussoukro
  • Климат города

АРХИВ ПОГОДЫ в Yamoussoukro

Время (UTC), дата Ветер
(напр.,м/с)
 
Видим.   Явления Облачность Т
(С)
Тd
(С)
f
(%)
Тe
(С)
Тes
(С)
Комфортность P
(гПа)
Po
(гПа)
Тmin
(С)
Tmax
(С)
R
(мм)
R24
(мм)
S
(см)
06 10.08 штиль 0 6000 м слабая морось 10/6 120 м
[Frnb]
+22.5 +21.9 96 +30 +30 очень
душно
1014.6 990.5 +22.5
09 10.08 Ю 3 10 км {морось} 10/10 300 м
[Cu Sc]
+24.4 +22.1 87 +32 +32 очень
душно
1015.7 991.7
12 10.08 ЮЗ 2 10 км {морось} 9/6 400 м
[Cu med, cong Ac trans]
+27.9 +22.0 70 +36 +41 очень
душно
1014.4 990.7
15 10.08 ЮЗ 3 10 км 8/8 450 м
[Cu med, cong Ac trans]
+30.4 +20.7 56 +37 +40 очень
душно
1012.0 988.5
18 10.08 СВ 2 10 км 6/6 400 м
[Cb cap]
+28.7 +22.5 69 +38 +38 очень
душно
1011.7 988.2 +31.8
21 10.08 штиль 0 10 км ясно +24.5 +23.3 93 +33 +33 очень
душно
1014.6 1010.8
09 11.08 Ю 3 10 км 8/8 330 м
[Cu med, cong]
+25.9 +21.9 79 +33 +35 очень
душно
1016.5 992.6
12 11.08 Ю 2 10 км 8/8 400 м
[Cu med, cong Ac trans]
+29.1 +21.5 64 +37 +41 очень
душно
1016.2 991.6
15 11.08 З 2 10 км 6/6 450 м
[Cu med, cong]
+32.2 +20.9 51 +39 +45 очень
душно
1012.3 988.9
18 11.08 ЮЗ 2 10 км 8/3 450 м
[Cu med, cong Ac trans]
+29.8 +21.7 62 +38 +38 очень
душно
1011.8 988.3 +32.8
21 11.08 ЮЗ 2 10 км 4/4 300 м
[Sc]
+25.3 +21.6 80 +32 +32 очень
душно
1013.6 989.8
00 12.08 ЮЗ 2 10 км 1/1 300 м
[Sc]
+23.3 +22.0 92 +32 +32 очень
душно
1014.6 990.5
06 12.08 ЮЗ 2 8000 м 8/8 300 м
[Sc]
+22.4 +21.4 94 +29 +29 очень
душно
1014.3 990.2 +22.3
09 12.08 ЮЗ 5 10 км 10/8 360 м
[Cu med, cong Ac As]
+23.4 +21.4 89 +32 +32 очень
душно
1015.9 991.8
12 12.08 ЮЗ 2 10 км 10/8 400 м
[Cu med, cong Ac As]
+24.9 +21.8 83 +32 +33 очень
душно
1015.5 991.6
15 12.08 З 2 10 км 10/10 400 м
[Cu med, cong]
+26.9 +22.4 76 +35 +35 очень
душно
1013.1 989.3
18 12.08 штиль 0 10 км 10/0
[Ac As]
+28.0 +23.7 77 +38 +38 очень
душно
1012.5 976.0 +29.5
21 12.08 штиль 0 10 км 3/0
[Ac trans]
+24.2 +22.9 92 +32 +32 очень
душно
1013.7 969.8
00 13.08 ЮЗ 1 10 км ясно +22.3 +22.0 98 +30 +30 очень
душно
1013.0 988.9
03 13.08 ЮЗ 3 10 км ясно +22.8 +22.3 97 +31 +31 очень
душно
1012.6 988.5
06 13.08 ЮЗ 2 6000 м 10/10 300 м
[Sc]
+22.5 +22.1 98 +30 +30 очень
душно
1013.6 989.5 +22.0
09 13.08 ЮЗ 4 8000 м {дождь} 10/8 330 м
[Cu med, cong Ac As]
+23.1 +22.2 95 +32 +32 очень
душно
1014.9 991.2
12 13.08 ЮЗ 4 10 км {дождь} 8/6 400 м
[Cu med, cong Ac As]
+28.6 +22.5 70 +38 +41 очень
душно
1013.8 990.1 0.2
15 13.08 штиль 0 10 км 9/4 400 м
[Cu med, cong Ac As]
+30.2 +22.1 62 +39 +44 очень
душно
1010.7 997.1
18 13.08 штиль 0 10 км 9/3 400 м
[Cu med, cong Ac trans]
+27.9 +23.0 75 +37 +38 очень
душно
1010.7 987.1 +31.6 0.2
21 13.08 Ю 2 10 км 8/0
[Ac trans]
+25.9 +23.0 84 +35 +35 очень
душно
1012.2 988.4
00 14.08 Ю 2 10 км 4/0
[Ac trans]
+24.0 +22.8 93 +32 +32 очень
душно
1013.4 989.4
06 14.08 ЮЗ 1 8000 м 9/5 300 м
[Sc Ac As]
+23.8 +22.0 90 +31 +31 очень
душно
1013.0 989.0 +23.8 0.2
09 14.08 ЮЗ 4 8000 м 10/10 330 м
[Cu med, cong]
+24.9 +22.0 84 +32 +32 очень
душно
1014.0 990.1
12 14.08 Ю 3 10 км 9/9 400 м
[Cu med, cong]
+28.5 +22.9 72 +38 +40 очень
душно
1013.1 989.5
15 14.08 Ю 3 10 км 8/4 400 м
[Cu med, cong Ac trans]
+29.0 +22.8 69 +38 +42 очень
душно
1010.9 991.1
18 14.08 ЮЗ 2 10 км 10/5 400 м
[Cu med, cong Ac As]
+29.2 +22.1 66 +38 +38 очень
душно
1010.4 986.9 +31.0
21 14.08 В 4 8000 м слабый ливневой дождь, в посл. час гроза 10/6 300 м
[Sc Ac As]
+21.9 +21.0 95 +28 +28 душно 1013.3 969.1
06 15.08 ЮЗ 4 8000 м зарница {гроза, дождь} 9/4 300 м
[Sc Ac As]
+22.0 +21.6 98 +29 +29 очень
душно
1012.4 988.3 0.8
09 15.08 Ю 2 6000 м слабая морось 10/10 150 м
[St]
+23.0 +22.3 96 +31 +31 очень
душно
1014.8 990.7
12 15.08 ЮЗ 2 10 км {морось} 9/8 330 м
[Cu med, cong Ac As]
+25.7 +23.5 88 +35 +38 очень
душно
1013.5 989.7 0.4
15 15.08 Ю 4 10 км 8/5 480 м
[Cu med, cong Ac trans]
+26.7 +27.7 100 +41 +44 опасность
перегрева
1011.5 987.9
18 15.08 Ю 4 10 км 8/3 330 м
[Cb cap Ac trans]
+26.1 +22.2 79 +34 +34 очень
душно
1011.9 988.1 +28.6 0.4
21 15.08 Ю 3 10 км 6/6 300 м
[Sc]
+23.2 +21.6 91 +31 +31 очень
душно
1013.9 989.9
06 16.08 ЮЗ 2 6000 м 10/10 300 м
[Sc]
+22.5 +21.0 91 +29 +29 очень
душно
1014.5 990.4 +22.0 0.4
09 16.08 ЮЗ 3 10 км 8/8 330 м
[Cu med, cong]
+24.7 +20.4 77 +31 +32 очень
душно
1015.9 991.9
12 16.08 ЮЗ 4 10 км 8/8 400 м
[Cu med, cong]
+28.7 +21.2 64 +36 +39 очень
душно
1014.1 990.5
15 16.08 СЗ 5 10 км 5/4 450 м
[Cu med, cong Ac trans]
+28.5 +21.6 66 +36 +40 очень
душно
1012.5 988.9
18 16.08 СЗ 3 10 км 8/1 400 м
[Cu med, cong Ac trans]
+27.0 +21.7 73 +35 +35 очень
душно
1012.5 988.8 +31.0
21 16.08 СЗ 2 10 км 4/0
[Ac trans]
+23.1 +21.5 91 +31 +31 очень
душно
1014.0 990.0
00 17.08 штиль 0 10 км ясно +23.2 +21.5 90 +31 +31 очень
душно
1014.7 990.6

 

Местоположение метеостанции Yamoussoukro (Кот-д'Ивуар): широта 6.90 долгота -5.35 высота над уровнем моря 213 м.

В архиве по умолчанию представлена погода в Yamoussoukro за последнюю неделю. Архивные данные за месяц целиком и за предыдущие месяцы, начиная с января 2011 года, Вы можете получить, выбрав интересующий диапазон дат из раскрывающегося списка и нажав кнопку "Ввод!".

Внимание! Время в таблицах - всемирное. Для получения местного времени необходимо прибавить поправку, которая в Yamoussoukro равна 0 ч.

Смотрите также архив погоды в соседних городах и на ближайших метеорологических станциях:

Погода в Dimbokro (Кот-д'Ивуар) (77 км)
Погода в Bouake (Кот-д'Ивуар) (98 км)
Погода в Gagnoa (Кот-д'Ивуар) (108 км)
Погода в Daloa (Кот-д'Ивуар) (124 км)
Погода в Sassandra (Кот-д'Ивуар) (231 км)
Погода в Abidjan (Кот-д'Ивуар) (242 км)
Погода в Man (Кот-д'Ивуар) (245 км)
Погода в San Pedro (Кот-д'Ивуар) (279 км)
Погода в Korhogo (Кот-д'Ивуар) (282 км)
Погода в Adiake (Кот-д'Ивуар) (288 км)

Пояснения к столбцам:

Ветер - указаны скорость ветра в м/с - средняя за 10 мин, порывы в срок и между сроками (в фигурных скобках) и направление, откуда дует ветер: С - северный, СВ - северо-восточный, В - восточный, ЮВ - юго-восточный, Ю - южный, ЮЗ - юго-западный, З - западный, СЗ - северо-западный.
Видимость - горизонтальная дальность видимости в метрах или километрах. При видимости от 1 до 10 км при отсутствии осадков обычно наблюдается дымка, при ухудшении видимости до 1 км и менее - туман. В сухую погоду видимость может ухудшаться дымом, пылью или мглою.
Явления - указаны атмосферные явления, наблюдавшиеся в срок или в последний час перед сроком; фигурными скобками обозначены явления, наблюдавшиеся между сроками (за 1-3 часа до срока); квадратными скобками обозначены град или гололедные отложения с указанием их диаметра в мм.
Облачность - указаны через наклонную черту общая и нижняя облачность в баллах и высота нижней границы облаков в метрах; квадратными скобками обозначены формы облаков: Ci - перистые, Cs - перисто-слоистые, Cc - перисто-кучевые, Ac - высококучевые, As - высокослоистые, Sc - слоисто-кучевые, Ns - слоисто-дождевые, Cu - кучевые, Cb - кучево-дождевые. Подробнее классификацию облаков см. в Атласе облаков (PDF).
T - Температура воздуха - температура, измеренная на высоте 2 м над землей.
Td - Температура точки росы - температура, при понижении до которой содержащийся в воздухе водяной пар достигнет насыщения.
f - Относительная влажность воздуха - влажноcть воздуха, измеренная на высоте 2 м над землей.
Te - Эффективная температура - температура, которую ощущает одетый по сезону человек в тени. Характеристика душности погоды. При расчете учитывается влияние влажности воздуха и скорости ветра на теплоощущения человека.
Tes - Эффективная температура на солнце - температура, которую ощущает человек, с поправкой на солнечный нагрев. Характеристика знойности погоды. Зависит от высоты солнца над горизонтом, облачности и скорости ветра. Ночью, в пасмурную погоду, а также при ветре 12 м/с и более поправка равна нулю.
P - Атмосферное давление - приведенное к уровню моря атмосферное давление.
Po - Атмосферное давление - измеренное на уровне метеостанции атмосферное давление.
Tmin - Минимальная температура - минимум температуры воздуха на высоте 2 м над землей.
Tmax - Максимальная температура - максимум температуры воздуха на высоте 2 м над землей.
R - Количество осадков - Количество выпавших осадков за период времени, мм. При наведении курсора мыши на число - период времени, за который выпало указанное количество осадков.
R24 - Количество осадков - Количество выпавших осадков за 24 часа, мм.
S - Снежный покров - Высота снежного покрова, см. При наведении курсора мыши на число - состояние снежного покрова и степень покрытия местности в баллах.